This is the latest recevied weather packets stored in our database for station/object W8AN. If no packets are shown the sender has not sent any weather packets the latest 10 day(s).
| Time | Temp. | Humidity | Pressure | Rain* | Wind** | Luminosity | Snow |
|---|---|---|---|---|---|---|---|
| 1778260740 | 13.89° C | 71% | 4266.2 hPa | 0 mm | - | 474 W/m² | - |
| 1778260436 | 13.89° C | 72% | 4266.3 hPa | 0 mm | - | 501 W/m² | - |
| 1778260133 | 13.33° C | 70% | 4266.3 hPa | 0 mm | - | 477 W/m² | - |
| 1778259831 | 14.44° C | 72% | 4266.5 hPa | 0 mm | - | 255 W/m² | - |
| 1778259527 | 13.89° C | 72% | 4266.5 hPa | 0 mm | - | 903 W/m² | - |
| 1778259225 | 13.89° C | 71% | 4266.6 hPa | 0 mm | - | 603 W/m² | - |
| 1778258921 | 13.33° C | 72% | 4266.5 hPa | 0 mm | - | 768 W/m² | - |
| 1778258618 | 13.33° C | 72% | 4266.4 hPa | 0 mm | - | 958 W/m² | - |
| 1778258316 | 13.33° C | 71% | 4266.4 hPa | 0 mm | - | 647 W/m² | - |
| 1778258014 | 13.33° C | 73% | 4266.8 hPa | 0 mm | - | 741 W/m² | - |
| 1778257709 | 12.78° C | 76% | 4266.9 hPa | 0 mm | - | 799 W/m² | - |
| 1778257406 | 12.78° C | 76% | 4267.1 hPa | 0 mm | - | 374 W/m² | - |
| 1778257103 | 12.22° C | 77% | 4266.9 hPa | 0 mm | - | 240 W/m² | - |
| 1778256800 | 12.22° C | 78% | 4267 hPa | 0 mm | - | 245 W/m² | - |
| 1778256498 | 12.22° C | 77% | 4267.2 hPa | 0 mm | - | 158 W/m² | - |
| 1778256196 | 12.22° C | 75% | 4267.4 hPa | 0 mm | - | 170 W/m² | - |
| 1778255892 | 12.22° C | 75% | 4267.4 hPa | 0 mm | - | 140 W/m² | - |
| 1778255589 | 12.22° C | 74% | 4267.2 hPa | 0 mm | - | 163 W/m² | - |
| 1778255286 | 12.22° C | 75% | 4267.2 hPa | 0 mm | - | 146 W/m² | - |
| 1778254984 | 12.22° C | 74% | 4267.3 hPa | 0 mm | - | 113 W/m² | - |
| 1778254680 | 12.22° C | 74% | 4267.2 hPa | 0 mm | - | 129 W/m² | - |
| 1778254378 | 12.22° C | 74% | 4267.2 hPa | 0 mm | - | 144 W/m² | - |
| 1778254074 | 12.22° C | 73% | 4267.2 hPa | 0 mm | - | 170 W/m² | - |
| 1778253770 | 12.22° C | 74% | 4267.1 hPa | 0 mm | - | 170 W/m² | - |
| 1778253466 | 11.67° C | 74% | 4267.3 hPa | 0 mm | - | 156 W/m² | - |
* Rain latest hour (hover to see other rain measurements)
** Current wind speed in m/s (hover to see current wind gust speed)